Tracking 28790 objects as of 19-Apr-2024
HD Live streaming from Space Station
objects crossing your sky now

CE-SAT 1

Track CE-SAT 1 now!
10-day predictions


NORAD ID: 42769
Int'l Code: 2017-036E
Perigee: 446.4 km
Apogee: 462.8 km
Inclination: 97.1 °
Period: 93.5 minutes
Semi major axis: 6825 km
RCS: Unknown
Launch date: June 23, 2017
Source: Japan (JPN)
Launch site: SRIHARIKOTA (SRI)
Your satellite tracking list
Your tracking list is empty




NASA's NSSDC Master Catalog

Two Line Element Set (TLE):
1 42769U 17036E   24110.16816060  .00033254  00000-0  84378-3 0  9991
2 42769  97.1317 131.1775 0011991  99.0837 261.1767 15.39532979379282
Source of the keplerian elements: AFSPC